Location: UFOWorks Observatory
(42.1050°N, 72.2350°W)
Time: 07:07:21
(UTC-04:00)

ISS - Visible Passes

Search period start: 30 July 2014 00:00
Search period end: 09 August 2014 00:00
Orbit: 411 x 419 km, 51.6° (Epoch: 30 July)

Date Brightness Start Highest point End Pass type
(mag) Time Alt. Az. Time Alt. Az. Time Alt. Az.
30 Jul -0.3 01:24:11 17° NNE 01:24:11 17° NNE 01:25:28 10° NE visible
30 Jul -0.3 02:58:10 10° NW 03:00:23 16° N 03:02:36 10° NE visible
30 Jul -1.3 04:34:46 10° NW 04:37:51 32° NNE 04:40:56 10° E visible
31 Jul -0.3 02:09:55 13° NNW 02:11:18 16° N 02:13:29 10° NE visible
31 Jul -0.8 03:46:03 10° NW 03:48:53 24° NNE 03:51:42 10° ENE visible
01 Aug -0.2 01:22:53 16° N 01:22:53 16° N 01:24:30 10° NE visible
01 Aug -0.5 02:57:17 10° NW 02:59:51 20° NNE 03:02:25 10° ENE visible
01 Aug -2.9 04:33:40 10° NW 04:37:02 69° NNE 04:40:23 10° ESE visible
02 Aug -0.3 02:09:03 13° NNW 02:10:47 17° N 02:13:07 10° NE visible
02 Aug -2.0 03:44:54 10° NW 03:48:08 43° NNE 03:51:22 10° ESE visible
02 Aug -3.5 22:03:44 10° SW 22:07:03 81° SE 22:08:01 43° ENE visible
03 Aug 0.0 01:23:17 12° NE 01:23:17 12° NE 01:23:52 10° NE visible
03 Aug -1.3 02:56:19 11° NW 02:59:11 30° NNE 03:02:12 10° E visible
03 Aug -3.0 04:32:46 10° WNW 04:35:59 44° SW 04:39:12 10° SSE visible
03 Aug -3.0 21:15:04 10° SSW 21:18:15 45° SE 21:21:28 10° ENE visible
03 Aug -1.3 22:52:05 10° W 22:55:04 29° NNW 22:57:02 17° NNE visible
04 Aug -0.1 02:12:54 10° ENE 02:12:54 10° ENE 02:12:56 10° ENE visible
04 Aug -3.4 03:46:04 39° WNW 03:47:11 79° SW 03:50:32 10° SE visible
04 Aug -2.0 22:02:54 10° W 22:06:06 42° NNW 22:09:18 10° NE visible
04 Aug -0.3 23:41:09 10° NW 23:43:28 17° N 23:43:49 17° N visible
05 Aug -2.9 21:13:52 10° WSW 21:17:10 67° NNW 21:20:30 10° NE visible
05 Aug -0.5 22:51:50 10° WNW 22:54:22 19° NNW 22:56:53 10° NE visible
06 Aug 0.2 00:29:43 10° NW 00:29:48 10° NW 00:29:48 10° NW visible
06 Aug -0.8 22:02:31 10° WNW 22:05:17 24° NNW 22:08:05 10° NE visible
06 Aug -0.2 23:40:42 10° NW 23:42:41 16° N 23:42:41 16° N visible
07 Aug -1.3 21:13:14 10° W 21:16:15 31° NNW 21:19:18 10° NE visible
07 Aug -0.3 22:51:33 10° NW 22:53:44 16° N 22:55:27 12° NNE visible
08 Aug -2.1 20:24:03 10° WSW 20:27:15 45° NNW 20:30:30 10° NE visible
08 Aug -0.4 22:02:15 10° NW 22:04:35 17° N 22:06:56 10° NE visible
08 Aug -0.2 23:39:47 10° NW 23:41:02 16° NNW 23:41:02 16° NNW visible
